[[{"header":{"parameterUnit":"m.s-1","parameterCategory":1,"la1":30.2991,"la2":30.254,"lo1":-89.0895,"lo2":-89.0444,"dy":0.0017,"dx":0.0017,"nx":28,"ny":28,"refTime":"2025-07-07T21:00:00:Z","depth":0,"parameterNumber":2,"parameterNumberName":"U-component_of_WINDS"},"data":[0,0,0,0,0,0,0,0,0,0,0,0,0,0,0,0,0,0,0,0,0,0,0,0,0,0,0,0,0,0,0,0,0,0,0,0,0,0,0,0,0,0,0,0,0,0,0,0,0,0,0,0,0,0,0,0,0,0,4.7448,4.7449,0,4.7592,4.7594,4.7595,4.7534,4.7531,4.7527,4.7524,4.7673,4.768,4.7687,0,0,0,0,0,0,0,0,0,0,0,0,0,4.712,4.7126,4.7447,4.7449,4.7451,4.7592,4.7594,4.7596,4.7535,4.7531,4.7526,4.7522,4.7671,4.7679,4.7688,0,0,0,0,0,0,0,0,0,0,0,0,0,4.7263,4.7128,4.7447,4.7438,4.7438,4.7592,4.7594,4.7596,4.7536,4.753,4.7525,4.752,4.7668,4.7678,4.7689,4.7861,0,0,4.7722,4.7727,0,0,0,0,0,0,0,0,4.7255,4.7275,4.7437,4.7439,4.7439,4.754,4.7533,4.7685,4.7537,4.7499,4.7524,4.7518,4.7633,4.7646,4.7685,4.7868,4.7874,4.7723,4.773,4.7734,4.7737,0,0,0,0,0,0,0,4.7245,4.7269,4.7505,4.744,4.7441,4.7427,4.7441,4.7562,4.7594,4.7502,4.7498,4.7515,4.7633,4.7675,4.7688,4.7876,4.7723,4.7732,4.7739,4.7743,4.8208,4.8214,0,0,0,0,0,0,4.7235,4.7261,4.75,4.7509,4.7332,4.7437,4.7453,4.7513,4.7592,4.7599,4.752,4.7512,4.7659,4.7676,4.7693,4.79,4.7734,4.7744,4.7751,4.8202,4.8209,4.8216,0,0,0,0,0,0,4.7228,4.7257,4.7494,4.7384,4.7413,4.7448,4.7516,4.7519,4.756,4.7606,4.7611,4.7557,4.7655,4.7678,4.782,4.7904,4.7749,4.7759,4.8196,4.8205,4.8213,4.8315,0,0,0,0,0,0,4.7219,4.7255,4.732,4.7386,4.7419,4.7618,4.7521,4.7525,4.7579,4.7571,4.7642,4.7649,4.7653,4.7804,4.7831,4.7917,4.7768,4.8188,4.82,4.821,4.8304,4.8326,4.8345,0,0,0,0,0,4.7208,4.7343,4.7324,4.7353,4.7501,4.7623,4.7642,4.7644,4.7586,4.7653,4.7682,4.7647,4.7891,4.7819,4.7848,4.7939,4.8183,4.8196,4.8209,4.8295,4.8322,4.8345,0,0,0,0,0,0,4.7287,4.7352,4.7331,4.7492,4.7553,4.7613,4.7696,4.7672,4.7751,4.774,4.7739,4.7756,4.7902,4.7935,4.7853,4.811,4.8028,4.8048,4.8083,4.8109,4.8129,4.8119,4.7777,0,0,0,0,0,4.7323,4.7416,4.7468,4.7605,4.7636,4.7661,4.7715,4.7711,4.7774,4.7799,4.7839,4.7902,4.7993,4.8053,4.8139,4.8308,4.8324,4.8385,4.8406,4.8422,4.844,4.8533,4.8561,4.8259,4.8259,4.8259,0,0,4.7399,4.7445,4.7504,4.7622,4.7669,4.7766,4.7683,4.7789,4.7862,4.7815,4.7952,4.7983,4.8054,4.8211,4.8282,4.8242,4.8526,4.8439,4.8452,4.846,4.8549,4.8578,4.8603,4.8268,4.8266,4.8265,0,0,4.7586,4.7631,4.775,4.7799,4.7871,4.7886,4.7915,4.798,4.7999,4.8136,4.8103,4.8189,4.8346,4.8397,4.8444,4.8652,4.8623,4.868,4.8787,4.8878,4.8902,4.8923,4.8998,4.9025,4.8697,4.8698,4.8698,0,4.7671,4.7816,4.7815,4.7924,4.7977,4.7939,4.8061,4.8108,4.8205,4.8242,4.8196,4.8393,4.8437,4.8606,4.8657,4.8696,4.8729,4.8673,4.8899,4.892,4.8939,4.9011,4.9039,4.8704,4.8703,4.8703,4.8702,0,4.7918,4.8019,4.8107,4.8201,4.8264,4.8379,4.8395,4.8459,4.845,4.8471,4.8611,4.8664,4.876,4.88,4.8792,4.8968,4.8941,4.8897,4.8815,4.8975,4.9042,4.907,4.8713,4.8711,4.8709,4.8708,0,0,4.816,4.8252,4.8285,4.8327,4.8404,4.8482,4.8596,4.869,4.8745,4.8813,4.8909,4.9042,4.9002,4.9055,4.9053,4.9132,4.9295,4.9079,4.908,4.9118,4.9494,4.9528,4.9559,4.9276,4.9282,4.9286,4.9489,0,4.8354,4.8553,4.8555,4.8738,4.8832,4.8798,4.8897,4.8955,4.8978,4.9061,4.9086,4.9181,4.912,4.9152,4.9229,4.9259,4.9371,4.9244,4.9366,4.9371,4.9351,4.9595,4.963,4.9819,4.9515,4.9519,4.9523,0,4.8608,4.8684,4.8876,4.894,4.898,4.9069,4.9155,4.9235,4.9301,4.9311,4.9371,4.9357,4.9473,4.9387,4.9548,4.9462,4.9512,4.9534,4.9541,4.9554,4.9457,4.9614,4.9879,4.9908,4.9564,4.9561,4.9558,0,4.8767,4.8917,4.9052,4.9089,4.9167,4.923,4.9265,4.9326,4.9382,4.9458,4.9495,4.9584,4.9633,4.9702,4.9713,4.9649,4.9875,4.9789,4.9888,4.9888,4.9937,4.9934,5.0215,4.9968,4.9968,4.9967,4.9967,0,4.8984,4.9103,4.9124,4.9207,4.934,4.9342,4.9473,4.9504,4.9558,4.9646,4.9622,4.9706,4.9714,4.98,4.9809,4.9942,4.9964,4.9976,4.9977,4.9979,4.9978,5.0012,5.0,4.9975,4.9973,4.9972,4.997,0,4.9184,4.9203,4.9348,4.9409,4.9427,4.9523,4.9575,4.9655,4.9675,4.9788,4.9814,4.9846,4.9947,4.9964,5.0083,5.0088,5.0247,5.0234,5.0225,5.0224,5.0322,5.0313,5.0636,5.0679,5.0403,5.0405,5.0408,0,4.9322,4.9413,4.9484,4.9542,4.9581,4.9674,4.9731,4.9737,4.9798,4.988,4.995,5.0048,5.0127,5.029,5.0324,5.0414,5.0404,5.0511,5.0418,5.0417,5.0407,5.0402,5.0411,5.0529,5.0532,5.0535,5.0537,0,4.9566,4.957,4.9654,4.9743,4.9812,4.9882,4.9947,4.9996,5.001,5.008,5.0183,5.0244,5.0365,5.0463,5.0554,5.059,5.0567,5.0566,5.0594,5.0597,5.0588,5.0595,5.0275,5.0559,5.0556,5.0555,5.0554,5.0553,4.974,4.9819,4.9882,4.9977,5.0027,5.0089,5.0167,5.0197,5.0283,5.0381,5.0379,5.0492,5.0556,5.0675,5.0717,5.0806,5.0772,5.0812,5.0822,5.0832,5.0842,5.0573,5.0823,5.0822,5.0821,5.0821,5.082,0,4.9983,5.0022,5.0109,5.0201,5.0276,5.0247,5.0318,5.0383,5.0482,5.0543,5.0622,5.074,5.0835,5.0877,5.0971,5.1034,5.1025,5.1058,5.1054,5.1063,5.0867,5.0834,5.1064,5.1064,5.1064,5.1063,5.1063,5.1063,5.0118,5.0252,5.0264,5.0422,5.046,5.0571,5.0614,5.0671,5.072,5.0854,5.0932,5.0959,5.1012,5.111,5.1196,5.1206,5.1242,5.128,5.1285,5.1102,5.1077,5.1053,5.1023,5.1288,5.1288,5.1474,5.1476,5.1477]},{"header":{"parameterUnit":"m.s-1","parameterCategory":1,"la1":30.2991,"la2":30.254,"lo1":-89.0895,"lo2":-89.0444,"dy":0.0017,"dx":0.0017,"nx":28,"ny":28,"refTime":"2025-07-07T21:00:00:Z","depth":0,"parameterNumber":3,"parameterNumberName":"V-component_of_WINDS"},"data":[0,0,0,0,0,0,0,0,0,0,0,0,0,0,0,0,0,0,0,0,0,0,0,0,0,0,0,0,0,0,0,0,0,0,0,0,0,0,0,0,0,0,0,0,0,0,0,0,0,0,0,0,0,0,0,0,0,0,-1.9934,-1.9934,0,-1.999,-1.999,-1.9991,-1.9993,-1.9992,-1.9991,-1.999,-2.0048,-2.005,-2.0052,0,0,0,0,0,0,0,0,0,0,0,0,0,-1.9829,-1.983,-1.9934,-1.9934,-1.9935,-1.999,-1.999,-1.9991,-1.9993,-1.9992,-1.9991,-1.999,-2.0047,-2.0049,-2.0052,0,0,0,0,0,0,0,0,0,0,0,0,0,-1.9878,-1.9831,-1.9934,-1.9942,-1.9944,-1.9989,-1.999,-1.9991,-1.9993,-1.9992,-1.9991,-1.999,-2.0046,-2.0049,-2.0052,-2.0093,0,0,-2.0062,-2.0064,0,0,0,0,0,0,0,0,-1.9875,-1.9882,-1.994,-1.9942,-1.9943,-1.9983,-1.9974,-2.0025,-1.9993,-1.9974,-1.999,-1.9989,-2.0027,-2.0032,-2.0044,-2.0096,-2.0098,-2.0063,-2.0065,-2.0066,-2.0067,0,0,0,0,0,0,0,-1.9872,-1.988,-1.9956,-1.9941,-1.9943,-1.9944,-1.995,-1.9984,-2.0006,-1.9976,-1.9976,-1.9983,-2.0028,-2.0041,-2.0046,-2.0099,-2.0063,-2.0065,-2.0067,-2.0069,-2.0187,-2.0188,0,0,0,0,0,0,-1.9867,-1.9877,-1.9954,-1.9957,-1.9906,-1.9946,-1.9953,-1.9971,-2.0005,-2.0009,-1.9983,-1.9982,-2.0036,-2.0042,-2.0048,-2.0098,-2.0066,-2.0069,-2.0071,-2.0186,-2.0187,-2.0189,0,0,0,0,0,0,-1.9865,-1.9874,-1.9952,-1.9917,-1.9927,-1.9949,-1.997,-1.9973,-1.9987,-2.0011,-2.0015,-1.9993,-2.0036,-2.0043,-2.0082,-2.01,-2.007,-2.0073,-2.0185,-2.0186,-2.0188,-2.0198,0,0,0,0,0,0,-1.9861,-1.9873,-1.9888,-1.9918,-1.9929,-1.9985,-1.9971,-1.9975,-1.9992,-1.9992,-2.0021,-2.0025,-2.0035,-2.0077,-2.0085,-2.0104,-2.0076,-2.0183,-2.0185,-2.0187,-2.0196,-2.02,-2.0203,0,0,0,0,0,-1.9858,-1.9889,-1.9889,-1.9898,-1.9949,-1.9986,-1.9992,-2.0003,-1.9994,-2.001,-2.0025,-2.0024,-2.0097,-2.0081,-2.009,-2.011,-2.0182,-2.0185,-2.0187,-2.0195,-2.0199,-2.0203,0,0,0,0,0,0,-1.986,-1.9893,-1.9893,-1.9935,-1.9958,-1.9986,-2.0006,-2.0008,-2.0034,-2.0032,-2.0044,-2.0051,-2.009,-2.0104,-2.0086,-2.0151,-2.0138,-2.0143,-2.0141,-2.0145,-2.0149,-2.0144,-2.0079,0,0,0,0,0,-1.9866,-1.9893,-1.992,-1.9954,-1.9965,-1.9984,-2.0,-2.0007,-2.0031,-2.0041,-2.0059,-2.0083,-2.0111,-2.0129,-2.0156,-2.0199,-2.0205,-2.0217,-2.022,-2.0223,-2.0227,-2.0251,-2.0256,-2.0198,-2.0198,-2.0198,0,0,-1.9877,-1.9898,-1.9914,-1.9955,-1.9973,-2.0001,-1.9992,-2.0022,-2.0043,-2.0045,-2.0083,-2.0097,-2.0125,-2.0165,-2.0184,-2.0178,-2.0245,-2.0226,-2.0228,-2.0231,-2.0254,-2.026,-2.0265,-2.0199,-2.0199,-2.0199,0,0,-1.9912,-1.9931,-1.9961,-1.998,-2.0008,-2.0021,-2.0028,-2.0057,-2.0067,-2.0105,-2.0107,-2.0133,-2.0181,-2.02,-2.0216,-2.026,-2.026,-2.0269,-2.0286,-2.031,-2.0315,-2.0319,-2.0334,-2.034,-2.0272,-2.0272,-2.0272,0,-1.9923,-1.9965,-1.9977,-2.0007,-2.0025,-2.0029,-2.006,-2.0078,-2.0113,-2.0125,-2.0118,-2.0179,-2.0198,-2.0244,-2.0254,-2.0267,-2.0276,-2.0265,-2.0313,-2.0317,-2.0321,-2.0336,-2.0342,-2.0273,-2.0273,-2.0273,-2.0273,0,-1.9976,-2.0006,-2.0027,-2.0062,-2.0082,-2.0112,-2.0129,-2.0148,-2.0154,-2.0167,-2.0206,-2.0229,-2.0261,-2.0272,-2.0278,-2.0319,-2.0315,-2.031,-2.0297,-2.0327,-2.0342,-2.0348,-2.0274,-2.0274,-2.0274,-2.0274,0,0,-2.0013,-2.0055,-2.0063,-2.0079,-2.0111,-2.0134,-2.0165,-2.0196,-2.0213,-2.0238,-2.0264,-2.0305,-2.0302,-2.032,-2.0328,-2.0348,-2.0382,-2.0342,-2.0342,-2.0348,-2.043,-2.0433,-2.0439,-2.0383,-2.0384,-2.0385,-2.0428,0,-2.0052,-2.0107,-2.0119,-2.0166,-2.0194,-2.0199,-2.0226,-2.0249,-2.0262,-2.0288,-2.0303,-2.0332,-2.0325,-2.0336,-2.0357,-2.0373,-2.0399,-2.0371,-2.0408,-2.0409,-2.04,-2.0447,-2.045,-2.0489,-2.0433,-2.0434,-2.0435,0,-2.0103,-2.013,-2.018,-2.0209,-2.0221,-2.0245,-2.0276,-2.03,-2.0327,-2.0335,-2.0356,-2.0362,-2.0395,-2.0381,-2.0427,-2.0408,-2.0424,-2.0434,-2.0436,-2.044,-2.0423,-2.0451,-2.0501,-2.0507,-2.0444,-2.0443,-2.0443,0,-2.0125,-2.0174,-2.021,-2.0224,-2.0259,-2.0276,-2.0291,-2.0316,-2.0335,-2.0362,-2.0374,-2.0404,-2.0421,-2.0444,-2.0458,-2.0447,-2.0503,-2.049,-2.0511,-2.0511,-2.0523,-2.0522,-2.0576,-2.0533,-2.0533,-2.0533,-2.0533,0,-2.0167,-2.0197,-2.022,-2.0243,-2.0278,-2.0291,-2.0326,-2.0341,-2.0364,-2.0389,-2.0396,-2.042,-2.0437,-2.0464,-2.0475,-2.0512,-2.0519,-2.0527,-2.053,-2.0527,-2.0526,-2.0537,-2.0534,-2.0535,-2.0535,-2.0534,-2.0534,0,-2.0196,-2.0213,-2.0253,-2.0284,-2.0292,-2.0316,-2.0342,-2.0364,-2.0378,-2.0411,-2.042,-2.0442,-2.0474,-2.0491,-2.053,-2.0538,-2.0579,-2.058,-2.057,-2.0571,-2.0591,-2.0589,-2.0655,-2.0664,-2.0616,-2.0616,-2.0616,0,-2.0221,-2.0245,-2.0278,-2.0296,-2.0312,-2.034,-2.0359,-2.0374,-2.0394,-2.0426,-2.0445,-2.0477,-2.0504,-2.0555,-2.0575,-2.0606,-2.0607,-2.0628,-2.0612,-2.0608,-2.0608,-2.0606,-2.0609,-2.0631,-2.0631,-2.0632,-2.0632,0,-2.0264,-2.0271,-2.0299,-2.0329,-2.0352,-2.0377,-2.0401,-2.0415,-2.0434,-2.0456,-2.0489,-2.051,-2.0551,-2.0583,-2.0616,-2.0632,-2.0636,-2.0637,-2.0644,-2.064,-2.0633,-2.0637,-2.0578,-2.0635,-2.0635,-2.0635,-2.0634,-2.0634,-2.0292,-2.0314,-2.034,-2.0371,-2.0391,-2.0414,-2.0436,-2.0454,-2.0481,-2.0516,-2.0523,-2.0558,-2.0585,-2.0629,-2.0646,-2.0674,-2.067,-2.0679,-2.0682,-2.0684,-2.0685,-2.0629,-2.068,-2.068,-2.068,-2.068,-2.068,0,-2.0335,-2.0353,-2.038,-2.0415,-2.0439,-2.044,-2.0468,-2.0488,-2.0518,-2.0543,-2.0569,-2.0608,-2.0639,-2.0662,-2.0695,-2.0712,-2.0715,-2.072,-2.0719,-2.0723,-2.0687,-2.0678,-2.0718,-2.0718,-2.0718,-2.0718,-2.0718,-2.0718,-2.036,-2.0397,-2.0407,-2.0454,-2.0472,-2.0506,-2.0522,-2.0543,-2.0563,-2.0605,-2.0632,-2.0647,-2.0671,-2.0705,-2.0735,-2.0741,-2.0752,-2.0758,-2.0764,-2.0729,-2.0725,-2.0722,-2.0713,-2.076,-2.076,-2.0798,-2.0798,-2.0799]}]]